SDO

Last updated on Mon Oct 14 2024 00:02:38 GMT+0000 (Coordinated Universal Time)

1 36395U 10005A 24287.23328977 -.00000040 00000+0 00000+0 0 9999 2 36395 33.3659 95.7473 0001786 167.8402 101.0580 1.00273548 53892
UTC large
Height (km)
Speed (km/s)
/
Latitude / Longitude
Inclination (degrees)
Orbital Period (minutes)
Azimuth
Elevation
Range (km)
Doppler Factor

Next 0 passes for location: London (51.5072 / 0.1276)

Sorry there are no passes over London.